Regional Weather Roundup
Issued by NWS

Home | Current Version | Previous Version | Text Only | Print | Product List | Glossary Off
Versions: 1 2 3 4 5 6 7 8 9 10 11 12 13 14 15 16 17 18 19 20 21 22 23 24 25 26 27 28 29 30 31 32 33 34 35 36 37 38 39 40 41 42 43 44 45 46 47 48 49 50

000
ASUS44 KFWD 291515
RWRTX
NORTH TEXAS HOURLY WEATHER ROUNDUP
NATIONAL WEATHER SERVICE FORT WORTH TX
1000 AM CDT MON MAY 29 2017

NOTE: "FAIR" INDICATES FEW OR NO CLOUDS BELOW 12,000 FEET WITH NO
SIGNIFICANT WEATHER AND/OR OBSTRUCTIONS TO VISIBILITY.

TXZ118-119-291600-
DALLAS/FORT WORTH METROPLEX

CITY           SKY/WX    TMP DP  RH WIND       PRES   REMARKS
DFW AIRPORT    CLOUDY    78  64  61 NE3       30.07R
DALLAS LOVE    PTSUNNY   78  61  55 NE3       30.07R
FTW MEACHAM    CLOUDY    78  62  57 NE7       30.08R
DAL-EXECUTIVE  CLOUDY    76  63  64 E3        30.07R
FTW-ALLIANCE   PTSUNNY   77  61  57 N6        30.08R
FTW-NAS-JRB    CLOUDY    76  64  66 N3        30.08R
FTW-SPINKS     SUNNY     73  64  73 CALM      30.10R
ARLINGTON      CLOUDY    76  61  59 NE5       30.08R
GRAND PRAIRIE  SUNNY     75  61  60 CALM      30.09R
ADDISON        SUNNY     77  59  53 CALM      30.08R
MESQUITE       SUNNY     73  61  64 CALM      30.07R
LANCASTER      CLOUDY    74  62  64 E5        30.08R
$$

TXZ091>094-102>105-117-120-121-131>134-291600-
NORTH CENTRAL TEXAS

CITY           SKY/WX    TMP DP  RH WIND       PRES   REMARKS
SHRMAN/DENISON CLOUDY    75  63  66 CALM      30.09R
GAINESVILLE    CLOUDY    75  63  65 N7        30.10S
BOWIE          CLOUDY    75  64  68 W3        30.10R
BRIDGEPORT     MOSUNNY   71  62  72 CALM      30.11R
DECATUR        MOSUNNY   75  63  67 NW3       30.10R
DENTON         CLOUDY    75  64  68 N5        30.08R
MCKINNEY       CLOUDY    75  65  70 NE3       30.08R
BONHAM         MOSUNNY   73  63  68 N6        30.08R
GREENVILLE     CLOUDY    75  64  69 NE3       30.08R
ROCKWALL       CLOUDY    73  63  72 N5        30.07R
TERRELL        CLOUDY    74  64  71 VRB3      30.07R
WAXAHACHIE     CLOUDY    74  64  70 NE5       30.09R
CLEBURNE       CLOUDY    75  63  64 NE7       30.10R
GRANBURY       PTSUNNY   75  64  67 CALM      30.10R
$$

TXZ083>090-098>101-113>116-127>130-139>142-154-155-291600-
WESTERN NORTH TEXAS

CITY           SKY/WX    TMP DP  RH WIND       PRES   REMARKS
WICHITA FALLS  MOSUNNY   78  59  51 NW9       30.09R
WF-KICKAPOO    MOSUNNY   77  60  56 W7        30.11R
VERNON         SUNNY     75  41  29 NW6       30.12R
ABILENE        CLOUDY    72  64  76 CALM      30.14R
ABILENE-DYESS  CLOUDY    73  64  73 N6        30.12R
GRAHAM         PTSUNNY   75  64  67 CALM      30.09S
BRECKENRIDGE   MOSUNNY   76  62  61 CALM      30.11R
CISCO          CLOUDY    72  64  78 N7        30.12R
EASTLAND       CLOUDY    74  64  71 NE7       30.11R
RANGER         CLOUDY    74  64  71 NE6       30.12R
MINERAL WELLS  CLOUDY    74  62  66 CALM      30.08R
STEPHENVILLE   CLOUDY    74  62  65 E5        30.13R
COMANCHE       CLOUDY    72  66  81 NE5       30.12R
BROWNWOOD      MOSUNNY   73  64  73 E7        30.12R
COLEMAN        MOSUNNY   75  61  63 NE7       30.12R
$$

TXZ143>147-156>162-174-175-291600-
CENTRAL TEXAS

CITY           SKY/WX    TMP DP  RH WIND       PRES   REMARKS
WACO           CLOUDY    76  69  79 CALM      30.07R
WACO-MCGREGOR  CLOUDY    73  69  87 CALM      30.09R THUNDER
HILLSBORO      PTSUNNY   73  69  86 CALM      30.09R
CORSICANA      PTSUNNY   76  70  82 SE3       30.09R
MEXIA          CLOUDY    74  70  88 W5        30.07R
HEARNE         CLOUDY    71  71 100 CALM      30.09R
CAMERON        CLOUDY    72  69  92 SE5       30.09R
TEMPLE         CLOUDY    73  70  88 CALM      30.09R
KILLEEN        CLOUDY    72  69  90 E8        30.08R
KILLEEN-SKYLRK CLOUDY    73  69  87 E5        30.09R
FORT HOOD      CLOUDY    70  68  94 E6        30.06R
HAMILTON       CLOUDY    74  67  78 E7        30.12R
LAMPASAS       CLOUDY    71  69  93 NE3       30.09S
$$

TXZ095>097-106>112-122>126-135>138-148>153-164>167-291600-
EAST TEXAS

CITY           SKY/WX    TMP DP  RH WIND       PRES   REMARKS
PARIS          CLOUDY    73  61  64 N6        30.07R
SULPHUR SPRNGS CLOUDY    73  63  70 CALM      30.09R
MOUNT PLEASANT PTSUNNY   76  63  64 E5        30.07R
GILMER         CLOUDY    73  67  80 CALM      30.06R
MINEOLA        CLOUDY    73  66  78 CALM      30.07R
TYLER          CLOUDY    74  68  81 CALM      30.07R
LONGVIEW       CLOUDY   N/A N/A N/A S8        30.06  HAZE
MARSHALL       CLOUDY    70  67  90 S6        30.09R
ATHENS         CLOUDY    72  72 100 CALM      30.07R
PALESTINE      CLOUDY    70  70 100 CALM      30.08R
JACKSONVILLE   CLOUDY    69  69 100 CALM      30.10R FOG
HENDERSON      CLOUDY    70  70 100 SE5       30.08R
CENTER         CLOUDY    73  71  95 SE6       30.09R
NACOGDOCHES    CLOUDY    70  66  88 CALM      30.06R
LUFKIN         CLOUDY    71  68  90 CALM      30.08R
$$

SUPPLEMENTAL OBSERVATIONS (NWS FORT WORTH AREA)

CITY           SKY/WX    TMP DP  RH WIND       PRES   REMARKS
DENISON DAM      N/A     73  64  73 NW3         N/A
CADDO GRASSLND   N/A     77  66  69 NE3         N/A
PAT MAYSE LAKE   N/A     73  64  73 NW5         N/A
GREENVILLE       N/A     75  63  64 N5          N/A
CEDAR HILL       N/A     77  66  69 CALM        N/A
LBJ GRASSLAND    N/A     75  63  64 NW5         N/A
POSSUM KINGDOM   N/A     77  64  65 N2          N/A
GRANBURY         N/A     75  63  64 NE5         N/A
COMANCHE         N/A     75  66  73 E7          N/A
MCGREGOR         N/A     75  68  78 NE3         N/A
TEMPLE           N/A     73  68  83 NE5         N/A
LAKE LIMESTONE   N/A     73  68  83 SE1         N/A
ATHENS           N/A     75  68  78 SW1         N/A
$$

SUPPLEMENTAL OBSERVATIONS (NWS NORMAN AREA)

CITY           SKY/WX    TMP DP  RH WIND       PRES   REMARKS
GOODLETT         N/A     77  42  28 W2        30.14R
ODELL            N/A     76  50  39 W6        30.14R
CROWELL          N/A     76  51  42 W5        30.14R
KNOX CITY        N/A     78  54  42 SW3       30.14R
SEYMOUR          N/A     78  53  40 W1        30.12R
MILLERS CREEK    N/A     79  59  50 S3          N/A
$$

SUPPLEMENTAL OBSERVATIONS (NWS SAN ANGELO AREA)

CITY           SKY/WX    TMP DP  RH WIND       PRES   REMARKS
WEINERT          N/A     79  56  45 S2        30.14R
HASKELL          N/A     76  55  47 SE3       30.14R
THROCKMORTON     N/A     80  56  45 E3        30.13R
STAMFORD         N/A     76  60  57 S2        30.14S
CLYDE            N/A     74  58  57 NE7       30.16R
HAMBY            N/A     75  63  64 NW3         N/A
IVIE RESERVOIR   N/A     75  63  64 E10         N/A
COLORADO BEND    N/A     72  68  88 E5          N/A
$$

SUPPLEMENTAL OBSERVATIONS (NWS SHREVEPORT AREA)

CITY           SKY/WX    TMP DP  RH WIND       PRES   REMARKS
TEXARKANA        N/A     77  68  73 NE2         N/A
LINDEN           N/A     75  64  69 NE3         N/A
CADDO LAKE       N/A     73  70  88 S3          N/A
LUFKIN           N/A     72  68  88 MISG        N/A
N SABINE NF      N/A     70  68  94 MISG        N/A
$$

SUPPLEMENTAL OBSERVATIONS ARE A COLLECTION OF AUTOMATED INSTRUMENTS
THAT ARE MAINTAINED BY A VARIETY OF FEDERAL AND STATE AGENCIES.
CERTAIN ELEMENTS...SUCH AS HUMIDITY VALUES AND SUSTAINED WIND
SPEEDS...MAY BE APPROXIMATED.





USA.gov is the U.S. government's official web portal to all federal, state and local government web resources and services.